| time (UTC) | temp F | wind direction | speed knots | gust knots | rain 1hr in | rain 24hr in | rain mn in | humidity % | barometer mb |
| 20260504211554 | 52 | 293 | 0.0 | 8.7 | 0.00 | 0.11 | 0.02 | 68 | 1004.0 |
| 20260504210059 | 52 | 228 | 0.9 | 11.3 | 0.00 | 0.11 | 0.02 | 68 | 1003.9 |
| 20260504204548 | 52 | 259 | 0.0 | 11.3 | 0.00 | 0.16 | 0.02 | 67 | 1003.9 |
| 20260504203505 | 53 | 270 | 6.1 | 13.0 | 0.00 | 0.19 | 0.02 | 69 | 1002.3 |
| 20260504203052 | 52 | 243 | 1.7 | 11.3 | 0.00 | 0.16 | 0.02 | 65 | 1003.8 |
| 20260504201533 | 52 | 229 | 0.0 | 6.1 | 0.00 | 0.16 | 0.02 | 66 | 1003.8 |
| 20260504200505 | 54 | 237 | 5.2 | 12.2 | 0.00 | 0.21 | 0.02 | 67 | 1002.3 |
| 20260504200100 | 52 | 216 | 2.6 | 14.8 | 0.00 | 0.16 | 0.02 | 65 | 1003.8 |
| 20260504200005 | 54 | 259 | 5.2 | 14.8 | 0.00 | 0.22 | 0.02 | 67 | 1002.3 |
| 20260504194602 | 52 | 262 | 0.0 | 14.8 | 0.00 | 0.24 | 0.02 | 66 | 1003.9 |
| 20260504193505 | 54 | 224 | 5.2 | 10.4 | 0.00 | 0.25 | 0.02 | 71 | 1002.3 |
| 20260504193049 | 52 | 250 | 0.9 | 8.7 | 0.00 | 0.24 | 0.02 | 65 | 1004.0 |
| 20260504191543 | 53 | 151 | 0.9 | 12.2 | 0.00 | 0.24 | 0.02 | 64 | 1003.9 |
| 20260504190505 | 53 | 190 | 3.5 | 8.7 | 0.00 | 0.29 | 0.02 | 70 | 1002.4 |
| 20260504190059 | 53 | 324 | 2.6 | 15.6 | 0.00 | 0.24 | 0.02 | 63 | 1004.0 |
| 20260504190004 | 54 | 216 | 5.2 | 21.7 | 0.00 | 0.30 | 0.02 | 68 | 1002.4 |
| 20260504184535 | 55 | 265 | 0.9 | 13.0 | 0.00 | 0.37 | 0.02 | 54 | 1003.9 |
| 20260504183505 | 56 | 258 | 4.3 | 13.9 | 0.00 | 0.35 | 0.02 | 57 | 1001.8 |
| 20260504183032 | 56 | 211 | 0.9 | 10.4 | 0.00 | 0.37 | 0.02 | 47 | 1003.8 |
| 20260504183005 | 56 | 286 | 6.1 | 19.1 | 0.00 | 0.35 | 0.02 | 55 | 1001.8 |
| 20260504181523 | 57 | 42 | 2.6 | 10.4 | 0.00 | 0.37 | 0.02 | 42 | 1003.7 |
| 20260504180505 | 59 | 258 | 5.2 | 15.6 | 0.00 | 0.41 | 0.02 | 43 | 1001.6 |
| 20260504180018 | 58 | 252 | 0.9 | 11.3 | 0.00 | 0.37 | 0.02 | 41 | 1003.4 |
| 20260504180005 | 59 | 263 | 2.6 | 17.4 | 0.00 | 0.42 | 0.02 | 45 | 1001.3 |
| 20260504174514 | 59 | 250 | 0.0 | 9.6 | 0.00 | 0.43 | 0.02 | 37 | 1003.2 |
| 20260504173505 | 60 | 272 | 5.2 | 11.3 | 0.00 | 0.44 | 0.02 | 39 | 1001.3 |
| 20260504173008 | 59 | 214 | 0.0 | 9.6 | 0.00 | 0.43 | 0.02 | 38 | 1003.0 |
| 20260504171501 | 59 | 269 | 0.0 | 11.3 | 0.00 | 0.43 | 0.02 | 38 | 1003.0 |
| 20260504140504 | 51 | 238 | 4.3 | 8.7 | 0.00 | 0.53 | 0.02 | 57 | 1003.0 |
| 20260504130504 | 47 | 267 | 4.3 | 11.3 | 0.00 | 0.60 | 0.02 | 68 | 1002.3 |
| 20260504100503 | 35 | 301 | 1.7 | 7.8 | 0.00 | 0.70 | 0.02 | 91 | 1000.9 |
| 20260504081550 | 37 | 39 | 0.0 | 7.8 | 0.00 | 0.83 | 0.02 | 87 | 1001.4 |
| 20260504080504 | 37 | 331 | 2.6 | 13.0 | 0.00 | 0.80 | 0.02 | 91 | 999.1 |
| 20260504050516 | 40 | 309 | 3.5 | 7.8 | 0.01 | 0.83 | 0.02 | 96 | 998.6 |
| 20260504050016 | 40 | 317 | 2.6 | 10.4 | 0.01 | 0.83 | 0.02 | 96 | 998.6 |
| 20260504044535 | 40 | 288 | 0.0 | 9.6 | 0.00 | 0.87 | 0.02 | 89 | 1000.2 |
| 20260504043031 | 39 | 339 | 0.0 | 7.8 | 0.00 | 0.87 | 0.02 | 89 | 1000.2 |
| 20260504041525 | -90 | 264 | 0.0 | 4.3 | 0.01 | 0.87 | 0.02 | 89 | 1000.1 |
| 20260504040516 | 41 | 331 | 2.6 | 10.4 | 0.01 | 0.83 | 0.01 | 96 | 998.6 |
| 20260504040021 | 40 | 305 | 0.9 | 13.0 | 0.01 | 0.87 | 0.02 | 90 | 1000.2 |
| 20260504040016 | 41 | 330 | 4.3 | 15.6 | 0.01 | 0.83 | 0.01 | 96 | 998.4 |
| 20260504034515 | 40 | 332 | 0.0 | 7.8 | 0.01 | 0.87 | 0.02 | 90 | 1000.0 |
| 20260504033010 | 39 | 290 | 1.7 | 8.7 | 0.01 | 0.87 | 0.02 | 90 | 999.9 |
| 20260504031506 | 39 | 313 | 0.0 | 3.5 | 0.00 | 0.86 | 0.01 | 90 | 999.9 |
| 20260504030516 | 41 | 324 | 2.6 | 10.4 | 0.00 | 0.82 | 0.00 | 97 | 998.1 |
| 20260504030001 | 40 | 343 | 0.0 | 4.3 | 0.00 | 0.86 | 0.01 | 90 | 999.7 |
| 20260504024556 | 40 | 297 | 0.0 | 4.3 | 0.00 | 0.86 | 0.01 | 90 | 999.6 |
| 20260504023050 | 39 | 319 | 0.0 | 5.2 | 0.00 | 0.86 | 0.01 | 89 | 999.6 |
| 20260504023015 | 40 | 318 | 2.6 | 11.3 | 0.01 | 0.82 | 0.82 | 97 | 998.1 |
| 20260504021547 | 40 | 281 | 0.0 | 5.2 | 0.00 | 0.86 | 0.01 | 90 | 999.6 |
| 20260504020515 | 40 | 320 | 3.5 | 8.7 | 0.02 | 0.82 | 0.82 | 97 | 998.0 |
| 20260504020041 | 40 | 288 | 0.0 | 7.0 | 0.00 | 0.86 | 0.01 | 90 | 999.7 |
| 20260504014548 | 40 | 7 | 0.0 | 1.7 | 0.00 | 0.86 | 0.01 | 90 | 999.8 |
| 20260504013515 | 40 | 333 | 3.5 | 7.8 | 0.02 | 0.81 | 0.81 | 96 | 998.0 |
| 20260504013037 | 40 | 324 | 0.0 | 0.0 | 0.01 | 0.86 | 0.01 | 90 | 999.8 |
| 20260504011526 | 40 | 25 | 0.0 | 7.8 | 0.01 | 0.86 | 0.01 | 90 | 999.8 |
| 20260504010515 | 40 | 347 | 5.2 | 10.4 | 0.02 | 0.80 | 0.80 | 96 | 997.9 |
| 20260504010021 | 40 | 23 | 0.0 | 7.0 | 0.01 | 0.86 | 0.01 | 90 | 999.4 |
| 20260504010015 | 40 | 341 | 3.5 | 11.3 | 0.02 | 0.80 | 0.80 | 96 | 997.9 |
| 20260504004517 | 40 | 283 | 0.0 | 8.7 | 0.02 | 0.86 | 0.01 | 90 | 999.6 |
| 20260504003515 | 40 | 351 | 5.2 | 11.3 | 0.02 | 0.79 | 0.79 | 96 | 997.6 |
| 20260504003010 | 39 | 298 | 0.9 | 9.6 | 0.02 | 0.85 | 0.00 | 90 | 999.5 |
| 20260504001504 | -90 | 32 | 0.0 | 5.2 | 0.02 | 0.85 | 0.00 | 90 | 999.4 |
| 20260504000515 | 41 | 351 | 6.1 | 11.3 | 0.03 | 0.79 | 0.79 | 96 | 997.6 |
| 20260504000002 | 39 | 14 | 0.0 | 2.6 | 0.02 | 0.85 | 0.00 | 89 | 999.5 |
| 20260503234600 | 40 | 27 | 0.0 | 7.8 | 0.02 | 0.83 | 0.83 | 89 | 999.5 |
| 20260503233029 | 40 | 42 | 0.0 | 0.0 | 0.00 | 0.00 | 0.83 | 90 | 999.4 |
| 20260503233015 | 41 | 1 | 4.3 | 11.3 | 0.05 | 0.77 | 0.77 | 96 | 997.8 |
| 20260503231528 | 40 | 290 | 0.0 | 9.6 | 0.04 | 0.83 | 0.83 | 90 | 999.6 |
| 20260503230023 | 39 | 37 | 0.0 | 10.4 | 0.03 | 0.83 | 0.83 | 89 | 999.6 |
| 20260503230015 | 41 | 5 | 7.0 | 17.4 | 0.05 | 0.76 | 0.76 | 96 | 997.8 |
| 20260503224526 | 39 | 18 | 0.0 | 7.8 | 0.03 | 0.82 | 0.82 | 89 | 999.6 |
| 20260503223021 | 40 | 25 | 3.5 | 10.4 | 0.03 | 0.81 | 0.81 | 90 | 999.7 |
| 20260503223015 | 41 | 3 | 4.3 | 12.2 | 0.04 | 0.72 | 0.72 | 96 | 997.8 |
| 20260503221520 | 41 | 37 | 0.9 | 8.7 | 0.02 | 0.80 | 0.80 | 90 | 999.8 |
| 20260503220515 | 42 | 357 | 6.1 | 10.4 | 0.04 | 0.71 | 0.71 | 96 | 998.0 |
| 20260503220057 | 40 | 71 | 0.0 | 9.6 | 0.02 | 0.80 | 0.80 | 89 | 999.8 |
| 20260503214545 | 41 | 311 | 0.0 | 8.7 | 0.04 | 0.79 | 0.79 | 89 | 1000.0 |
| 20260503213514 | 42 | 18 | 6.1 | 13.9 | 0.05 | 0.69 | 0.69 | 99 | 998.3 |
| 20260503213042 | 42 | 17 | 0.0 | 2.6 | 0.04 | 0.78 | 0.78 | 89 | 1000.0 |
| 20260503213015 | 43 | 18 | 5.2 | 14.8 | 0.04 | 0.69 | 0.69 | 96 | 998.3 |